Weather in Lodz

0426 UTC 17 March 2018 EPLL 170400Z 04018KT 9999 -SN DRSN SCT032 BKN037 M07/M11 Q1012 R25/695592

Where pilots are born

  • Daniel from Ireland

    I just wanted to say thank you very much for all your help. Throughout all the training I have done, I have not had a more...

  • Jeremie from Belgium

    "Bartolini Air est une super ecole : les instructeurs et les dirigeants sont a la disposition des eleve-pilotes non...

  • Ismail

    Best school, friendly staff, amazing instructors. Cheers,


Operations per year


Number of trained pilots


Nationality students

How to join the training?